Regional Weather Roundup
Issued by NWS

Home | Current Version | Previous Version | Graphics & Text | Print | Product List | Glossary On
Versions: 1 2 3 4 5 6 7 8 9 10 11 12 13 14 15 16 17 18 19 20 21 22 23 24 25 26 27 28 29 30 31 32 33 34 35 36 37 38 39 40 41 42 43 44 45 46 47 48 49 50
000
ASUS43 KDTX 182310
RWRMI
MICHIGAN HOURLY REGIONAL WEATHER ROUNDUP
NATIONAL WEATHER SERVICE DETROIT/PONTIAC MI
600 PM EST SUN FEB 18 2018

NOTE: "FAIR" INDICATES FEW OR NO CLOUDS BELOW 12,000 FEET WITH NO
SIGNIFICANT WEATHER AND/OR OBSTRUCTION TO VISIBILITY.

MIZ047>049-052>055-059>063-066>070-074>076-081>083-190000-
SOUTHEAST LOWER MICHIGAN

CITY           SKY/WX    TMP DP  RH WIND       PRES   REMARKS
ADRIAN         FAIR      32  26  78 S7        30.22F WCI  26
ALMA           FAIR      34  26  72 S7        30.16F WCI  28
ANN ARBOR      FAIR      31  26  82 CALM      30.22F
BAD AXE        FAIR      33  25  71 S8        30.20F WCI  26
CARO           FAIR      36  23  59 S12       30.18F WCI  28
DETROIT CITY   FAIR      33  25  72 S8        30.25F WCI  26
DETROIT        CLOUDY    34  27  75 S8        30.24F WCI  27
FLINT          FAIR      33  24  69 S12       30.20F WCI  24
GROSSE ILE     FAIR      32  28  83 SE6       30.24F WCI  27
HILLSDALE      FAIR      32  27  80 SE8       30.18S WCI  25
HOWELL         FAIR      32  26  77 SE12      30.19F WCI  23

CITY           SKY/WX    TMP DP  RH WIND       PRES   REMARKS
JACKSON        FAIR      33  25  72 SE9       30.19S WCI  25
LAMBERTVILLE   FAIR      36  29  75 SE3       30.23F
LANSING        FAIR      34  25  69 S12       30.17F WCI  25
LAPEER         FAIR      34  24  66 S6        30.22F WCI  29
MASON          FAIR      33  24  67 S12       30.18F WCI  25
MONROE         FAIR      34  27  75 SE7       30.23F WCI  28
MT. CLEMENS    CLOUDY    32  30  92 S9        30.24F WCI  24
PONTIAC        CLOUDY    32  24  72 S7        30.21S WCI  26
PORT HOPE        N/A     33  25  72 S10       30.19F WCI  25
PORT HURON     FAIR      32  23  69 S9G16     30.27S WCI  24
TRI CITIES     FAIR      36  24  62 S12       30.17F WCI  28
MIDLAND        FAIR      37  25  60 SE6       30.15F WCI  33
TROY           FAIR      35  26  69 SE8       30.25S WCI  28
SAGINAW HB     FAIR      34  27  75 S10       30.18F WCI  26
$$
MIZ043>046-050>051-056>058-064>065-071>073-077>080-190000-
SOUTHWEST LOWER MICHIGAN

CITY           SKY/WX    TMP DP  RH WIND       PRES   REMARKS
BATTLE CREEK   FAIR      34  24  67 SE9       30.16F WCI  27
BENTON HARBOR  FAIR      35  24  64 SE14      30.09F WCI  26
BIG RAPIDS     FAIR      36  20  52 S6        30.09S WCI  31
COLDWATER      FAIR      33  27  79 SE7       30.17F WCI  27
FREMONT        FAIR      35  16  45 SE8       30.08F WCI  29
HOLLAND        FAIR      36  24  62 SE14      30.09F WCI  27
GRAND RAPIDS   CLOUDY    36  22  56 S13       30.12F WCI  27
IONIA          FAIR      33  26  72 SE9       30.15F WCI  26
KALAMAZOO      FAIR      34  25  69 SE8       30.15F WCI  27
LUDINGTON      FAIR      35  24  63 SE9       30.02F WCI  28
MARSHALL       FAIR      32  24  71 SE7       30.17S WCI  26
MOUNT PLEASANT FAIR      36  24  62 S6        30.14F WCI  31
MUSKEGON       MOCLDY    36  23  59 SE13      30.08F WCI  27
SOUTH HAVEN    FAIR      36  24  62 SE12G17   30.09F WCI  27
$$
MIZ016>042-190000-
NORTHERN LOWER MICHIGAN

CITY           SKY/WX    TMP DP  RH WIND       PRES   REMARKS
ALPENA         FAIR      34  23  64 S13       30.13F WCI  25
BEAVER ISLAND  CLOUDY    33  21  62 SE12G18   29.98F WCI  24
BELLAIRE       MOCLDY    36  24  63 S16G22    30.04F WCI  26
CADILLAC       FAIR      33  20  57 S9        30.03F WCI  26
CHARLEVOIX     MOCLDY    36  21  54 SE10      30.04F WCI  28
FRANKFORT      MOCLDY    38  23  55 SE12G21   29.99F WCI  30
GAYLORD        FAIR      32  22  66 S15       30.04F WCI  22
GRAYLING       FAIR      33  23  66 S14       30.05F WCI  23
HARBOR SPRINGS MOCLDY    35  18  50 S6        30.04F WCI  30
HOUGHTON LAKE  FAIR      33  23  66 S15       30.09F WCI  23
MANISTEE       MOCLDY    37  21  52 SE12G20   30.00F WCI  29
OSCODA         FAIR      33  22  63 S10       30.17F WCI  25
PELLSTON       MOCLDY    34  19  54 SE8       30.04F WCI  27
ROGERS CITY    MOCLDY    34  20  57 S12       30.10F WCI  26
TRAVERSE CITY  CLOUDY    39  21  48 VRB6      30.02F WCI  35
$$
MIZ007>008-015-190000-
EASTERN UPPER MICHIGAN

CITY           SKY/WX    TMP DP  RH WIND       PRES   REMARKS
KINROSS        CLOUDY    26  23  88 SE14      30.04F WCI  14
MACKINAC ISLAN MOCLDY    30  24  77 E6        30.03F WCI  24
NEWBERRY       CLOUDY    26  22  85 SE13      29.96F WCI  15
S. S. MARIE    CLOUDY    28  24  85 SE9       30.05F WCI  19
MUNISING         N/A     32  26  78 S18G29    29.86F WCI  20
$$
MIZ004>006-011>014-085-190000-
CENTRAL UPPER MICHIGAN

CITY           SKY/WX    TMP DP  RH WIND       PRES   REMARKS
MANISTIQUE     CLOUDY    31  29  91 S17G24    29.95F WCI  20
ESCANABA       CLOUDY    32  27  81 S18G25    29.88F WCI  20
MENOMINEE      CLOUDY    32  27  81 S18G26    29.87F WCI  20
SAWYER-GWINN   CLOUDY    28  23  80 S17G31    29.81F WCI  16
$$
MIZ001>003-009>011-084-190000-
WESTERN UPPER MICHIGAN

CITY           SKY/WX    TMP DP  RH WIND       PRES   REMARKS
IRON MOUNTAIN  FAIR      30  22  72 S13G21    29.79F WCI  20
HOUGHTON       CLOUDY    26  14  60 E5        29.76F WCI  20
COPPER HARBOR    N/A     27  18  69 SW10G28   29.80F WCI  17
IRONWOOD       CLOUDY    34  22  61 S5        29.67F WCI  30
$$

ABBREVIATIONS USED IN REMARKS
   TC - TEMPERATURE IN CELSIUS
  WCI - WIND CHILL INDEX
   HX - HEAT INDEX
  VSB - VISIBILITY





USA.gov is the U.S. government's official web portal to all federal, state and local government web resources and services.